Fitchburg, MA

10:01 AM EST on December 09, 2019 (GMT -0500)
Fitchburg Municipal

Weather History for KFIT - June, 2019

Change the Weather History Date:

Tuesday, June 11, 2019

  Actual Average (KORH) Record (KORH)
Temperature  
Mean Temperature 68 °F -  
Max Temperature 75 °F 74 °F 91 °F (1984)
Min Temperature 55 °F 53 °F 37 °F (1980)
Cooling Degree Days 4    
Growing Degree Days 18 (Base 50)    
Moisture  
Dew Point 61 °F    
Average Humidity 80    
Maximum Humidity 97    
Minimum Humidity 41    
Precipitation  
Precipitation 0.49 in - - ()
Sea Level Pressure  
Sea Level Pressure 29.85 in    
Wind  
Wind Speed 8 mph (South)    
Max Wind Speed 24 mph    
Max Gust Speed 32 mph    
Visibility 7 miles    
Events Rain    
Averages and records for this station are not official NWS values.
T = Trace of Precipitation, MM = Missing Value Source: NWS Daily Summary

Daily Weather History Graph

Daily Weather History Graph

Search for Another Location

Airport or City:

Astronomy

Jun. 11, 2019 Rise Set
Actual Time 5:09 AM EDT 8:24 PM EDT
Civil Twilight 4:34 AM EDT 8:59 PM EDT
Nautical Twilight 3:49 AM EDT 9:44 PM EDT
Astronomical Twilight 2:55 AM EDT 10:38 PM EDT
Moon 2:11 PM EDT (6/11) 2:00 AM EDT (6/11)
Length of Visible Light 16h 24m
Length of Day
15h 15m
Waxing Gibbous, 66% of the Moon is Illuminated
Jun 11
Waxing Gibbous
Jun 17
Full
Jun 25
Last Quarter
Jul 2
New
Jul 9
First Quarter

Hourly Weather History & Observations

Time (EDT) Temp. Dew Point Humidity Pressure Visibility Wind Dir Wind Speed Gust Speed Precip Events Conditions
12:24 AM 68.0 °F 66.0 °F 93% 29.92 in 2.5 mi SE 6.9 mph - 0.07 in Rain Rain
12:52 AM 68.0 °F 66.0 °F 93% 29.91 in 3.0 mi Variable 3.5 mph - 0.12 in Rain Light Rain
1:00 AM 68.0 °F 66.0 °F 93% 29.91 in 2.5 mi SE 8.1 mph - 0.00 in Rain Light Rain
1:37 AM 68.0 °F 66.0 °F 93% 29.90 in 4.0 mi SE 10.4 mph - 0.01 in   Overcast
1:52 AM 68.0 °F 66.0 °F 93% 29.89 in 4.0 mi SE 9.2 mph - 0.02 in Rain Light Rain
2:02 AM 66.9 °F 66.0 °F 97% 29.88 in 2.5 mi SE 6.9 mph - 0.03 in Rain Rain
2:10 AM 66.9 °F 66.0 °F 97% 29.88 in 9.0 mi SSE 5.8 mph - 0.04 in Rain Light Rain
2:52 AM 66.9 °F 66.0 °F 97% 29.86 in 3.0 mi SE 5.8 mph - 0.07 in Rain Rain
3:52 AM 68.0 °F 66.0 °F 93% 29.83 in 10.0 mi SE 5.8 mph - 0.04 in Rain Light Rain
4:17 AM 68.0 °F 66.0 °F 93% 29.82 in 7.0 mi SE 6.9 mph - 0.02 in Rain Light Rain
4:52 AM 68.0 °F 66.0 °F 93% 29.81 in 6.0 mi SE 5.8 mph - 0.11 in Rain Light Rain
4:59 AM 68.0 °F 66.0 °F 93% 29.80 in 8.0 mi SSE 6.9 mph - 0.00 in Rain Light Rain
5:37 AM 68.0 °F 66.0 °F 93% 29.80 in 10.0 mi SSE 8.1 mph - 0.00 in   Overcast
5:52 AM 68.0 °F 66.0 °F 93% 29.79 in 6.0 mi SSE 8.1 mph - 0.00 in   Overcast
6:20 AM 68.0 °F 66.0 °F 93% 29.80 in 2.5 mi SSE 6.9 mph - N/A   Overcast
6:35 AM 68.0 °F 66.0 °F 93% 29.79 in 3.0 mi SSE 6.9 mph - 0.00 in Rain Light Rain
6:44 AM 68.0 °F 66.0 °F 93% 29.79 in 2.0 mi SSE 6.9 mph - 0.03 in Rain Rain
6:52 AM 68.0 °F 66.0 °F 93% 29.79 in 1.8 mi SSE 5.8 mph - 0.06 in Rain Rain
7:11 AM 68.0 °F 66.0 °F 93% 29.79 in 3.0 mi South 4.6 mph - 0.03 in Rain Light Rain
7:20 AM 68.0 °F 66.0 °F 93% 29.80 in 5.0 mi South 5.8 mph - 0.03 in   Overcast
7:29 AM 68.0 °F 66.0 °F 93% 29.79 in 6.0 mi SSE 5.8 mph - 0.03 in   Overcast
7:52 AM 69.1 °F 66.9 °F 93% 29.79 in 3.0 mi South 5.8 mph - 0.03 in   Overcast
8:49 AM 69.8 °F 66.2 °F 88% 29.79 in 10.0 mi SE 3.5 mph - 0.03 in Rain Light Rain
8:52 AM 70.0 °F 68.0 °F 93% 29.79 in 10.0 mi Calm Calm - 0.03 in   Overcast
9:18 AM 70.0 °F 64.9 °F 84% 29.80 in 10.0 mi West 11.5 mph - 0.00 in Rain Light Rain
9:50 AM 66.2 °F 62.6 °F 88% 29.81 in 10.0 mi WNW 13.8 mph 20.7 mph 0.01 in Rain Light Rain
9:52 AM 66.9 °F 62.1 °F 84% 29.81 in 10.0 mi NW 13.8 mph 20.7 mph 0.01 in Rain Light Rain
10:52 AM 64.9 °F 59.0 °F 81% 29.81 in 10.0 mi WNW 13.8 mph 21.9 mph 0.00 in   Overcast
11:52 AM 68.0 °F 57.9 °F 70% 29.82 in 10.0 mi WNW 18.4 mph 26.5 mph N/A   Mostly Cloudy
12:52 PM 71.1 °F 55.9 °F 59% 29.83 in 10.0 mi NW 18.4 mph 32.2 mph N/A   Clear
1:52 PM 73.0 °F 55.0 °F 53% 29.82 in 10.0 mi NW 24.2 mph 29.9 mph N/A   Clear
2:52 PM 73.9 °F 54.0 °F 50% 29.84 in 10.0 mi NW 13.8 mph 24.2 mph N/A   Clear
3:52 PM 75.0 °F 52.0 °F 44% 29.86 in 10.0 mi WNW 21.9 mph 31.1 mph N/A   Partly Cloudy
4:52 PM 75.0 °F 50.0 °F 41% 29.88 in 10.0 mi NW 20.7 mph 28.8 mph N/A   Partly Cloudy
5:52 PM 75.0 °F 51.1 °F 43% 29.89 in 10.0 mi NW 20.7 mph 28.8 mph N/A   Clear
6:52 PM 71.1 °F 46.9 °F 42% 29.94 in 10.0 mi NW 18.4 mph 29.9 mph N/A   Clear
7:52 PM 68.0 °F 48.0 °F 49% 29.96 in 10.0 mi NNW 10.4 mph - N/A   Clear
8:52 PM 64.9 °F 46.0 °F 50% 29.98 in 10.0 mi NNW 6.9 mph - N/A   Clear
10:52 PM 62.1 °F 45.0 °F 53% 30.04 in 10.0 mi NNW 8.1 mph - N/A   Clear
11:52 PM 55.0 °F 46.9 °F 74% 30.04 in 10.0 mi Calm Calm - N/A   Clear